YC0ACE-13 Weather Reports


Display with metric or nautical units.
time (UTC)temp
F
wind
direction
speed
MPH
gust
MPH
rain 1hr
in
rain 24hr
in
rain mn
in
humidity
%
barometer
mb
20260509022025 88 229 2.0 2.0 0.00 0.00 0.00 70 1015.6
20260509021525 89 348 1.0 1.0 0.00 0.00 0.00 70 1015.6
20260509021024 89 326 1.0 2.0 0.00 0.00 0.00 70 1015.6
20260509020524 88 311 0.0 0.0 0.00 0.00 0.00 70 1015.6
20260509020024 87 192 0.0 0.0 0.00 0.00 0.00 72 1015.6
20260509015525 86 186 0.0 0.0 0.00 0.00 0.00 73 1015.6
20260509015024 86 174 1.0 1.0 0.00 0.00 0.00 73 1015.6
20260509014524 87 216 1.0 1.0 0.00 0.00 0.00 73 1015.6
20260509014024 86 196 0.0 0.0 0.00 0.00 0.00 73 1015.6
20260509013524 86 65 3.0 3.0 0.00 0.00 0.00 74 1015.9
20260509013024 86 145 3.0 3.0 0.00 0.00 0.00 74 1015.9
20260509012524 86 114 3.0 3.0 0.00 0.00 0.00 74 1015.6
20260509012026 86 196 1.0 2.0 0.00 0.00 0.00 75 1015.6
20260509011524 86 206 1.0 1.0 0.00 0.00 0.00 75 1015.6
20260509011028 85 206 1.0 1.0 0.00 0.00 0.00 77 1015.6
20260509010525 85 215 3.0 3.0 0.00 0.00 0.00 77 1015.6
20260509010025 84 191 2.0 2.0 0.00 0.00 0.00 77 1015.6
20260509005524 84 208 1.0 2.0 0.00 0.00 0.00 78 1015.6
20260509005024 84 191 2.0 2.0 0.00 0.00 0.00 77 1015.6
20260509004524 84 205 1.0 1.0 0.00 0.00 0.00 78 1015.6
20260509004025 84 211 1.0 1.0 0.00 0.00 0.00 77 1015.6
20260509003524 84 187 0.0 0.0 0.00 0.00 0.00 79 1015.2
20260509003024 83 179 1.0 1.0 0.00 0.00 0.00 79 1015.6
20260509002524 83 207 0.0 1.0 0.00 0.00 0.00 79 1015.2
20260509002024 83 201 0.0 0.0 0.00 0.00 0.00 80 1015.2
20260509001524 83 207 0.0 0.0 0.00 0.00 0.00 81 1015.2
20260509001024 83 193 0.0 0.0 0.00 0.00 0.00 80 1015.2
20260509000524 82 191 0.0 0.0 0.00 0.00 0.00 81 1015.2
20260509000026 82 202 0.0 1.0 0.00 0.00 0.00 82 1014.9
20260508235524 82 192 0.0 1.0 0.00 0.00 0.00 82 1014.9
20260508235025 82 194 1.0 1.0 0.00 0.00 0.00 83 1014.9
20260508234525 81 191 0.0 0.0 0.00 0.00 0.00 83 1014.9
20260508234025 81 213 1.0 1.0 0.00 0.00 0.00 84 1014.6
20260508233524 81 199 2.0 2.0 0.00 0.00 0.00 84 1014.6
20260508233025 81 193 1.0 1.0 0.00 0.00 0.00 85 1014.6
20260508232524 81 214 2.0 2.0 0.00 0.00 0.00 85 1014.6
20260508232024 81 195 2.0 2.0 0.00 0.00 0.00 85 1014.6
20260508231525 81 198 1.0 1.0 0.00 0.00 0.00 85 1014.6
20260508231025 81 215 2.0 2.0 0.00 0.00 0.00 84 1014.2
20260508230526 81 208 2.0 2.0 0.00 0.00 0.00 84 1014.2
20260508230026 81 190 4.0 5.0 0.00 0.00 0.00 84 1014.2
20260508225524 81 204 1.0 2.0 0.00 0.00 0.00 84 1014.2
20260508225024 81 219 2.0 2.0 0.00 0.00 0.00 84 1014.2
20260508224524 81 223 4.0 5.0 0.00 0.00 0.00 84 1013.9
20260508224024 81 175 2.0 2.0 0.00 0.00 0.00 84 1014.2
20260508223525 81 206 2.0 2.0 0.00 0.00 0.00 84 1013.9
20260508223026 81 224 2.0 2.0 0.00 0.00 0.00 84 1013.9
20260508222524 81 207 2.0 2.0 0.00 0.00 0.00 84 1013.9
20260508222026 81 197 0.0 1.0 0.00 0.00 0.00 85 1013.9
20260508221524 81 198 0.0 0.0 0.00 0.00 0.00 85 1013.9
20260508221024 81 203 1.0 1.0 0.00 0.00 0.00 85 1013.5
20260508220524 81 201 0.0 0.0 0.00 0.00 0.00 85 1013.9
20260508220025 81 201 0.0 0.0 0.00 0.00 0.00 85 1013.9
20260508215524 81 203 0.0 0.0 0.00 0.00 0.00 84 1013.5
20260508215025 82 208 0.0 0.0 0.00 0.00 0.00 84 1013.9
20260508214524 82 213 0.0 1.0 0.00 0.00 0.00 83 1013.9
20260508214025 82 225 0.0 1.0 0.00 0.00 0.00 83 1013.5
20260508213524 82 217 0.0 0.0 0.00 0.00 0.00 83 1013.9
20260508213024 82 226 1.0 1.0 0.00 0.00 0.00 83 1013.5
20260508212525 81 226 1.0 1.0 0.00 0.00 0.00 84 1013.5
20260508212025 81 234 1.0 2.0 0.00 0.00 0.00 84 1013.5
20260508211525 81 198 0.0 0.0 0.00 0.00 0.00 84 1013.5
20260508211024 81 184 0.0 0.0 0.00 0.00 0.00 84 1013.5
20260508210524 81 179 0.0 0.0 0.00 0.00 0.00 84 1013.5
20260508210024 82 191 0.0 0.0 0.00 0.00 0.00 84 1013.5
20260508205524 82 189 1.0 1.0 0.00 0.00 0.00 83 1013.5
20260508205026 82 199 1.0 1.0 0.00 0.00 0.00 83 1013.5
20260508204525 82 201 0.0 0.0 0.00 0.00 0.00 83 1013.9
20260508204025 82 214 1.0 1.0 0.00 0.00 0.00 83 1013.9
20260508203524 82 208 0.0 0.0 0.00 0.00 0.00 83 1013.9
20260508203024 82 205 0.0 0.0 0.00 0.00 0.00 83 1013.5
20260508202525 82 200 0.0 0.0 0.00 0.00 0.00 83 1013.9
20260508202025 82 182 0.0 0.0 0.00 0.00 0.00 83 1013.9
20260508201525 82 183 0.0 1.0 0.00 0.00 0.00 83 1013.9
20260508201024 82 201 0.0 0.0 0.00 0.00 0.00 82 1013.9
20260508200524 82 186 0.0 0.0 0.00 0.00 0.00 82 1013.9
20260508200025 82 191 2.0 2.0 0.00 0.00 0.00 82 1013.9
20260508195525 82 179 0.0 1.0 0.00 0.00 0.00 83 1013.9
20260508195025 82 214 1.0 2.0 0.00 0.00 0.00 82 1013.9
20260508194524 82 227 2.0 2.0 0.00 0.00 0.00 82 1013.9
20260508194025 82 220 1.0 2.0 0.00 0.00 0.00 82 1013.9
20260508193525 82 208 3.0 3.0 0.00 0.00 0.00 82 1013.5
20260508193025 82 213 1.0 2.0 0.00 0.00 0.00 82 1013.5
20260508192524 82 207 1.0 1.0 0.00 0.00 0.00 82 1013.9
20260508192024 82 221 2.0 2.0 0.00 0.00 0.00 82 1013.9
20260508191524 82 202 1.0 1.0 0.00 0.00 0.00 82 1013.5
20260508191025 82 210 1.0 1.0 0.00 0.00 0.00 82 1013.9
20260508190524 82 190 3.0 3.0 0.00 0.00 0.00 81 1013.9
20260508190024 83 241 1.0 2.0 0.00 0.00 0.00 81 1013.9
20260508185524 83 183 1.0 1.0 0.00 0.00 0.00 81 1013.9
20260508185025 83 195 1.0 1.0 0.00 0.00 0.00 81 1013.9
20260508184525 83 182 1.0 1.0 0.00 0.00 0.00 81 1013.9
20260508184024 83 197 1.0 1.0 0.00 0.00 0.00 80 1014.2
20260508183525 83 200 1.0 1.0 0.00 0.00 0.00 80 1014.2
20260508183027 83 216 1.0 1.0 0.00 0.00 0.00 80 1014.2
20260508182524 83 206 0.0 0.0 0.00 0.00 0.00 80 1014.2
20260508182024 83 209 0.0 1.0 0.00 0.00 0.00 80 1013.9
20260508181525 83 206 0.0 0.0 0.00 0.00 0.00 79 1014.2
20260508181024 83 214 1.0 1.0 0.00 0.00 0.00 79 1014.2
20260508180525 83 216 1.0 1.0 0.00 0.00 0.00 79 1014.6
20260508180025 83 212 0.0 0.0 0.00 0.00 0.00 79 1014.2
20260508175525 83 217 1.0 1.0 0.00 0.00 0.00 79 1014.6
20260508175024 83 219 1.0 1.0 0.00 0.00 0.00 78 1014.6
20260508174525 83 243 1.0 1.0 0.00 0.00 0.00 79 1014.6
20260508174025 83 209 1.0 1.0 0.00 0.00 0.00 79 1014.6
20260508173525 83 216 1.0 1.0 0.00 0.00 0.00 79 1014.6
20260508173027 83 201 0.0 0.0 0.00 0.00 0.00 79 1014.6
20260508172525 83 215 1.0 2.0 0.00 0.00 0.00 78 1014.6
20260508172025 83 212 1.0 1.0 0.00 0.00 0.00 79 1014.6
20260508171525 83 225 2.0 2.0 0.00 0.00 0.00 78 1014.6
20260508171026 83 222 3.0 3.0 0.00 0.00 0.00 78 1014.6
20260508170525 83 192 1.0 1.0 0.00 0.00 0.00 79 1014.6
20260508170024 83 228 1.0 1.0 0.00 0.00 0.00 79 1014.6
20260508165524 83 223 2.0 2.0 0.00 0.00 0.00 79 1014.9
20260508165025 83 209 1.0 1.0 0.00 0.00 0.00 79 1014.6
20260508164525 84 228 2.0 2.0 0.00 0.00 0.00 78 1014.6
20260508164025 84 243 3.0 3.0 0.00 0.00 0.00 78 1014.9
20260508163526 84 222 2.0 2.0 0.00 0.00 0.00 78 1014.9
20260508163025 84 215 1.0 1.0 0.00 0.00 0.00 78 1014.9
20260508162526 84 227 2.0 2.0 0.00 0.00 0.00 78 1014.9
20260508162024 84 218 1.0 2.0 0.00 0.00 0.00 78 1015.2
20260508161526 84 196 2.0 2.0 0.00 0.00 0.00 78 1015.2
20260508161025 84 200 1.0 2.0 0.00 0.00 0.00 78 1015.2
20260508160125 84 212 3.0 3.0 0.00 0.00 0.00 78 1015.2
20260508155525 84 223 4.0 5.0 0.00 0.00 0.00 78 1015.2
20260508155024 84 208 2.0 2.0 0.00 0.00 0.00 78 1015.2
20260508154524 84 231 2.0 2.0 0.00 0.00 0.00 78 1015.2
20260508154025 84 196 2.0 2.0 0.00 0.00 0.00 78 1015.2
20260508153524 84 211 2.0 2.0 0.00 0.00 0.00 78 1015.2
20260508153026 84 222 2.0 2.0 0.00 0.00 0.00 78 1015.2
20260508152529 84 219 2.0 2.0 0.00 0.00 0.00 78 1014.9
20260508152024 84 224 2.0 2.0 0.00 0.00 0.00 78 1014.9
20260508151525 84 210 2.0 2.0 0.00 0.00 0.00 77 1014.9
20260508151030 85 215 2.0 2.0 0.00 0.00 0.00 77 1014.9
20260508150525 85 219 2.0 2.0 0.00 0.00 0.00 76 1014.9
20260508150025 85 237 2.0 2.0 0.00 0.00 0.00 76 1015.2
20260508145524 85 237 2.0 2.0 0.00 0.00 0.00 76 1015.2
20260508145024 85 210 1.0 1.0 0.00 0.00 0.00 76 1015.2
20260508144525 85 219 1.0 1.0 0.00 0.00 0.00 76 1015.2
20260508144024 85 238 2.0 2.0 0.00 0.00 0.00 75 1014.9
20260508143524 85 209 1.0 1.0 0.00 0.00 0.00 76 1014.9
20260508143025 85 212 2.0 2.0 0.00 0.00 0.00 76 1015.2
20260508142525 85 217 1.0 1.0 0.00 0.00 0.00 76 1015.2
20260508142024 85 216 1.0 2.0 0.00 0.00 0.00 75 1014.9
20260508141525 85 212 1.0 1.0 0.00 0.00 0.00 75 1015.2
20260508141025 85 175 1.0 1.0 0.00 0.00 0.00 75 1014.9
20260508140525 85 203 3.0 3.0 0.00 0.00 0.00 75 1015.2
20260508140025 85 213 2.0 2.0 0.00 0.00 0.00 75 1014.9
20260508135524 86 235 3.0 3.0 0.00 0.00 0.00 75 1014.9
20260508135025 86 202 4.0 5.0 0.00 0.00 0.00 75 1014.6
20260508134525 86 225 1.0 1.0 0.00 0.00 0.00 75 1014.9
20260508134024 86 191 3.0 3.0 0.00 0.00 0.00 75 1014.6
20260508133525 86 212 4.0 5.0 0.00 0.00 0.00 75 1014.6
20260508133029 86 215 2.0 2.0 0.00 0.00 0.00 74 1014.6
20260508132524 86 161 3.0 5.0 0.00 0.00 0.00 72 1014.6
20260508132024 87 185 3.0 5.0 0.00 0.00 0.00 72 1014.9
20260508131527 87 207 1.0 2.0 0.00 0.00 0.00 71 1014.6
20260508131024 87 178 0.0 0.0 0.00 0.00 0.00 70 1014.6
20260508130525 87 198 0.0 0.0 0.00 0.00 0.00 70 1014.6
20260508130025 87 224 0.0 0.0 0.00 0.00 0.00 70 1014.9
20260508125526 87 207 0.0 0.0 0.00 0.00 0.00 70 1014.6
20260508125024 87 264 0.0 0.0 0.00 0.00 0.00 70 1014.6
20260508124524 87 243 2.0 2.0 0.00 0.00 0.00 70 1014.6
20260508124024 87 295 0.0 1.0 0.00 0.00 0.00 70 1014.6
20260508123526 87 232 0.0 1.0 0.00 0.00 0.00 70 1014.6
20260508123025 87 279 0.0 1.0 0.00 0.00 0.00 70 1014.6
20260508122525 87 249 0.0 0.0 0.00 0.00 0.00 70 1014.2
20260508122024 87 301 1.0 1.0 0.00 0.00 0.00 70 1014.2
20260508121525 87 211 1.0 1.0 0.00 0.00 0.00 70 1014.2
20260508121025 87 19 1.0 2.0 0.00 0.00 0.00 70 1013.9
20260508120524 87 23 1.0 1.0 0.00 0.00 0.00 69 1013.9
20260508120025 87 3 1.0 1.0 0.00 0.00 0.00 69 1013.9
20260508115524 87 350 3.0 3.0 0.00 0.00 0.00 69 1013.5
20260508115024 87 2 3.0 3.0 0.00 0.00 0.00 69 1013.5
20260508114530 87 344 4.0 5.0 0.00 0.00 0.00 69 1013.5
20260508114024 87 12 3.0 3.0 0.00 0.00 0.00 69 1013.5
20260508113525 87 109 2.0 2.0 0.00 0.00 0.00 68 1013.2
20260508113025 87 161 3.0 3.0 0.00 0.00 0.00 68 1013.2
20260508112524 87 14 2.0 2.0 0.00 0.00 0.00 68 1013.2
20260508112024 87 11 3.0 3.0 0.00 0.00 0.00 68 1013.2
20260508111524 87 13 3.0 3.0 0.00 0.00 0.00 68 1012.9
20260508111024 87 1 3.0 3.0 0.00 0.00 0.00 68 1012.9
20260508110526 87 7 3.0 3.0 0.00 0.00 0.00 68 1012.9
20260508110024 87 353 4.0 6.0 0.00 0.00 0.00 68 1012.9
20260508105524 87 19 5.0 6.0 0.00 0.00 0.00 68 1012.9
20260508105027 87 7 2.0 3.0 0.00 0.00 0.00 68 1012.5
20260508104524 87 15 2.0 2.0 0.00 0.00 0.00 68 1012.5
20260508104028 87 359 2.0 2.0 0.00 0.00 0.00 68 1012.5
20260508103524 87 252 1.0 1.0 0.00 0.00 0.00 68 1012.5
20260508103024 88 4 2.0 3.0 0.00 0.00 0.00 68 1012.5
20260508102525 88 306 4.0 6.0 0.00 0.00 0.00 68 1012.9
20260508102024 88 347 3.0 3.0 0.00 0.00 0.00 68 1012.5
20260508101524 88 10 4.0 5.0 0.00 0.00 0.00 68 1012.2
20260508101025 88 20 3.0 5.0 0.00 0.00 0.00 67 1012.2
20260508100524 88 15 4.0 5.0 0.00 0.00 0.00 67 1012.2
20260508100024 88 341 3.0 5.0 0.00 0.00 0.00 66 1012.5
20260508095525 88 14 6.0 7.0 0.00 0.00 0.00 66 1012.5
20260508095024 89 345 2.0 2.0 0.00 0.00 0.00 66 1012.5
20260508094524 88 340 3.0 3.0 0.00 0.00 0.00 67 1012.2
20260508094024 88 36 2.0 3.0 0.00 0.00 0.00 67 1012.2
20260508093527 88 349 7.0 9.0 0.00 0.00 0.00 66 1012.2
20260508093024 89 354 4.0 7.0 0.00 0.00 0.00 66 1012.2
20260508092524 89 345 2.0 2.0 0.00 0.00 0.00 66 1012.2
20260508092025 89 8 5.0 6.0 0.00 0.00 0.00 66 1011.9
20260508091525 89 15 5.0 6.0 0.00 0.00 0.00 65 1011.9
20260508091025 89 27 3.0 3.0 0.00 0.00 0.00 65 1012.2
20260508090525 89 197 0.0 0.0 0.00 0.00 0.00 66 1012.2
20260508090024 89 6 5.0 6.0 0.00 0.00 0.00 65 1011.9
20260508085524 89 0 3.0 3.0 0.00 0.00 0.00 65 1011.9
20260508085024 89 286 1.0 2.0 0.00 0.00 0.00 66 1011.9
20260508084524 89 6 5.0 6.0 0.00 0.00 0.00 64 1011.9
20260508084024 89 43 4.0 5.0 0.00 0.00 0.00 65 1011.9
20260508083525 89 19 5.0 7.0 0.00 0.00 0.00 64 1011.9
20260508083025 90 289 1.0 1.0 0.00 0.00 0.00 65 1011.9
20260508082524 90 341 8.0 9.0 0.00 0.00 0.00 63 1011.9
20260508082025 90 4 5.0 7.0 0.00 0.00 0.00 63 1011.9
20260508081525 91 118 2.0 3.0 0.00 0.00 0.00 61 1011.9
20260508081025 90 6 1.0 2.0 0.00 0.00 0.00 62 1011.9
20260508080524 90 334 2.0 3.0 0.00 0.00 0.00 61 1011.9
20260508080025 90 345 5.0 6.0 0.00 0.00 0.00 61 1011.9
20260508075524 91 225 4.0 6.0 0.00 0.00 0.00 60 1011.9
20260508075025 90 358 3.0 5.0 0.00 0.00 0.00 61 1011.9
20260508074525 91 140 3.0 5.0 0.00 0.00 0.00 60 1011.9
20260508074024 91 309 2.0 2.0 0.00 0.00 0.00 61 1011.9
20260508073525 91 18 1.0 3.0 0.00 0.00 0.00 61 1011.9
20260508073024 91 225 4.0 8.0 0.00 0.00 0.00 60 1011.9
20260508072525 91 8 3.0 7.0 0.00 0.00 0.00 60 1011.9
20260508072026 91 8 4.0 7.0 0.00 0.00 0.00 60 1011.9
20260508071524 91 29 4.0 8.0 0.00 0.00 0.00 60 1012.2
20260508071025 92 351 4.0 5.0 0.00 0.00 0.00 59 1011.9
20260508070525 91 17 4.0 6.0 0.00 0.00 0.00 60 1011.9
20260508070025 92 358 3.0 7.0 0.00 0.00 0.00 59 1012.2
20260508065524 91 33 4.0 7.0 0.00 0.00 0.00 60 1012.2
20260508065025 92 351 7.0 9.0 0.00 0.00 0.00 59 1012.2
20260508064524 92 128 5.0 7.0 0.00 0.00 0.00 58 1012.2
20260508064024 92 229 1.0 2.0 0.00 0.00 0.00 58 1012.2
20260508063525 93 44 3.0 5.0 0.00 0.00 0.00 56 1012.2
20260508063024 93 250 1.0 1.0 0.00 0.00 0.00 57 1012.2
20260508062524 93 237 1.0 1.0 0.00 0.00 0.00 58 1012.2
20260508062024 93 355 8.0 10.0 0.00 0.00 0.00 57 1012.2
20260508061524 92 85 0.0 1.0 0.00 0.00 0.00 57 1012.2
20260508061026 92 230 2.0 2.0 0.00 0.00 0.00 57 1012.5
20260508060524 93 310 7.0 8.0 0.00 0.00 0.00 57 1012.5
20260508060025 92 17 3.0 5.0 0.00 0.00 0.00 58 1012.9
20260508055525 93 0 4.0 8.0 0.00 0.00 0.00 58 1012.5
20260508055024 93 347 2.0 2.0 0.00 0.00 0.00 58 1012.5
20260508054525 93 10 3.0 3.0 0.00 0.00 0.00 59 1012.5
20260508054024 94 11 3.0 6.0 0.00 0.00 0.00 58 1012.9
20260508053524 93 289 3.0 3.0 0.00 0.00 0.00 59 1012.9
20260508053024 93 348 4.0 7.0 0.00 0.00 0.00 59 1012.9
20260508052524 93 14 3.0 5.0 0.00 0.00 0.00 58 1012.9
20260508052024 93 3 1.0 1.0 0.00 0.00 0.00 59 1012.9
20260508051524 92 219 1.0 1.0 0.00 0.00 0.00 60 1012.9
20260508051024 92 23 2.0 2.0 0.00 0.00 0.00 62 1012.9
20260508050524 92 24 4.0 6.0 0.00 0.00 0.00 61 1013.2
20260508050024 92 131 4.0 5.0 0.00 0.00 0.00 60 1013.5
20260508045525 93 261 2.0 2.0 0.00 0.00 0.00 61 1013.5
20260508045024 94 284 2.0 2.0 0.00 0.00 0.00 59 1013.2
20260508044524 94 272 2.0 2.0 0.00 0.00 0.00 57 1013.2
20260508044024 93 202 0.0 1.0 0.00 0.00 0.00 59 1013.5
20260508043524 93 22 1.0 1.0 0.00 0.00 0.00 58 1013.5
20260508043024 93 252 3.0 3.0 0.00 0.00 0.00 55 1013.5
20260508042524 94 34 3.0 5.0 0.00 0.00 0.00 53 1013.5
20260508042026 93 269 1.0 2.0 0.00 0.00 0.00 55 1013.5
20260508041524 94 185 1.0 1.0 0.00 0.00 0.00 54 1013.5
20260508041024 94 22 1.0 3.0 0.00 0.00 0.00 53 1013.5
20260508040524 93 335 2.0 5.0 0.00 0.00 0.00 55 1013.5
20260508040026 92 148 1.0 2.0 0.00 0.00 0.00 56 1013.5
20260508035523 92 30 3.0 5.0 0.00 0.00 0.00 57 1013.9
20260508035030 91 255 0.0 1.0 0.00 0.00 0.00 59 1013.9
20260508034525 91 211 3.0 3.0 0.00 0.00 0.00 59 1013.9
20260508034024 92 208 1.0 1.0 0.00 0.00 0.00 59 1013.9
20260508033036 92 177 1.0 1.0 0.00 0.00 0.00 58 1014.2
20260508032525 90 25 2.0 3.0 0.00 0.00 0.00 61 1014.2
20260508032024 91 120 4.0 5.0 0.00 0.00 0.00 61 1014.6
20260508031524 91 343 1.0 2.0 0.00 0.00 0.00 62 1014.6
20260508031024 90 242 1.0 1.0 0.00 0.00 0.00 64 1014.6
20260508030524 89 2 1.0 1.0 0.00 0.00 0.00 64 1014.6
20260508030025 89 108 3.0 3.0 0.00 0.00 0.00 64 1014.6
20260508025525 89 279 1.0 2.0 0.00 0.00 0.00 65 1014.6
20260508025025 90 66 3.0 3.0 0.00 0.00 0.00 64 1014.9
20260508024524 89 152 2.0 2.0 0.00 0.00 0.00 65 1014.6
20260508024024 89 242 1.0 1.0 0.00 0.00 0.00 66 1014.6
20260508023525 89 197 0.0 1.0 0.00 0.00 0.00 66 1014.9
20260508023024 89 151 0.0 1.0 0.00 0.00 0.00 65 1014.9
20260508022524 89 176 0.0 0.0 0.00 0.00 0.00 66 1014.9